Time,TemperatureF,DewpointF,PressureIn,WindDirection,WindDirectionDegrees,WindSpeedMPH,WindSpeedGustMPH,Humidity,HourlyPrecipIn,Conditions,Clouds,dailyrainin,SoftwareType,DateUTC
2013-02-09 00:01:00,27.0,26.0,29.62,South,170,4.0,7.0,97,1.52,,,-99.99,,2013-02-09 06:01:00,
2013-02-09 00:11:00,27.0,26.0,29.62,South,170,4.0,7.0,97,1.52,,,-99.99,,2013-02-09 06:11:00,
2013-02-09 00:21:00,27.0,26.0,29.62,South,172,9.0,10.0,97,1.52,,,-99.99,,2013-02-09 06:21:00,
2013-02-09 00:31:00,28.0,27.0,29.61,SSE,162,9.0,13.0,97,1.52,,,-99.99,,2013-02-09 06:31:00,
2013-02-09 00:41:00,28.0,27.0,29.61,SSE,162,9.0,13.0,97,1.52,,,-99.99,,2013-02-09 06:41:00,
2013-02-09 00:52:00,28.0,28.0,29.61,SSE,166,12.0,14.0,98,1.52,,,-99.99,,2013-02-09 06:52:00,
2013-02-09 01:01:00,28.0,28.0,29.60,SSE,152,14.0,20.0,98,1.52,,,-99.99,,2013-02-09 07:01:00,
2013-02-09 01:11:00,28.0,28.0,29.60,SSE,152,14.0,20.0,98,1.52,,,-99.99,,2013-02-09 07:11:00,
2013-02-09 01:21:00,29.0,29.0,29.59,SSE,160,13.0,18.0,98,1.52,,,-99.99,,2013-02-09 07:21:00,
2013-02-09 01:31:00,30.0,29.0,29.59,North,357,16.0,22.0,98,1.52,,,-99.99,,2013-02-09 07:31:00,
2013-02-09 01:42:00,30.0,29.0,29.59,North,357,16.0,22.0,98,1.52,,,-99.99,,2013-02-09 07:42:00,
2013-02-09 01:52:00,30.0,30.0,29.59,SSE,162,16.0,23.0,99,1.52,,,-99.99,,2013-02-09 07:52:00,
2013-02-09 02:01:00,30.0,30.0,29.59,South,172,16.0,20.0,99,1.52,,,-99.99,,2013-02-09 08:01:00,
2013-02-09 02:11:00,30.0,30.0,29.59,South,172,16.0,20.0,99,1.52,,,-99.99,,2013-02-09 08:11:00,
2013-02-09 02:21:00,30.0,30.0,29.59,SSE,148,14.0,19.0,99,1.52,,,-99.99,,2013-02-09 08:21:00,
2013-02-09 02:31:00,30.0,30.0,29.58,SE,145,14.0,19.0,99,1.52,,,-99.99,,2013-02-09 08:31:00,
2013-02-09 02:42:00,30.0,30.0,29.58,SE,145,14.0,19.0,99,1.52,,,-99.99,,2013-02-09 08:42:00,
2013-02-09 02:52:00,30.0,30.0,29.58,SSE,159,13.0,18.0,99,1.52,,,-99.99,,2013-02-09 08:52:00,
2013-02-09 03:02:00,30.0,30.0,29.58,SSE,150,15.0,23.0,99,1.52,,,-99.99,,2013-02-09 09:02:00,
2013-02-09 03:11:00,30.0,30.0,29.58,SSE,150,15.0,23.0,99,1.52,,,-99.99,,2013-02-09 09:11:00,
2013-02-09 03:21:00,30.0,30.0,29.57,SSE,167,15.0,19.0,100,1.52,,,-99.99,,2013-02-09 09:21:00,
2013-02-09 03:31:00,30.0,30.0,29.56,SSE,152,15.0,22.0,100,1.52,,,-99.99,,2013-02-09 09:31:00,
2013-02-09 03:41:00,30.0,30.0,29.56,SSE,152,15.0,22.0,100,1.52,,,-99.99,,2013-02-09 09:41:00,
2013-02-09 03:52:00,30.0,30.0,29.55,SSE,158,16.0,22.0,100,1.52,,,-99.99,,2013-02-09 09:52:00,
2013-02-09 04:01:00,30.0,30.0,29.55,South,187,14.0,20.0,100,1.52,,,-99.99,,2013-02-09 10:01:00,
2013-02-09 04:11:00,30.0,30.0,29.55,South,187,14.0,20.0,100,1.52,,,-99.99,,2013-02-09 10:11:00,
2013-02-09 04:21:00,30.0,30.0,29.55,SSE,163,13.0,16.0,99,1.52,,,-99.99,,2013-02-09 10:21:00,
2013-02-09 04:31:00,30.0,30.0,29.54,SSE,158,14.0,20.0,100,1.52,,,-99.99,,2013-02-09 10:31:00,
2013-02-09 04:41:00,30.0,30.0,29.54,SSE,158,14.0,20.0,100,1.52,,,-99.99,,2013-02-09 10:41:00,
2013-02-09 04:52:00,30.0,30.0,29.53,SSE,162,16.0,20.0,100,1.52,,,-99.99,,2013-02-09 10:52:00,
2013-02-09 05:01:00,30.0,30.0,29.53,SSE,152,15.0,21.0,100,1.52,,,-99.99,,2013-02-09 11:01:00,
2013-02-09 05:11:00,30.0,30.0,29.53,SSE,152,15.0,21.0,100,1.52,,,-99.99,,2013-02-09 11:11:00,
2013-02-09 05:21:00,30.0,30.0,29.49,SE,146,15.0,23.0,100,1.52,,,-99.99,,2013-02-09 11:21:00,
2013-02-09 05:31:00,30.0,30.0,29.51,South,179,15.0,21.0,100,1.52,,,-99.99,,2013-02-09 11:31:00,
2013-02-09 05:41:00,30.0,30.0,29.51,South,179,15.0,21.0,100,1.52,,,-99.99,,2013-02-09 11:41:00,
2013-02-09 05:52:00,30.0,30.0,29.51,SSE,156,14.0,19.0,100,1.52,,,-99.99,,2013-02-09 11:52:00,
2013-02-09 06:02:00,30.0,30.0,29.51,SSE,158,16.0,22.0,99,1.52,,,-99.99,,2013-02-09 12:02:00,
2013-02-09 06:11:00,30.0,30.0,29.51,SSE,158,16.0,22.0,99,1.52,,,-99.99,,2013-02-09 12:11:00,
2013-02-09 06:21:00,30.0,30.0,29.50,SSE,148,14.0,19.0,99,1.52,,,-99.99,,2013-02-09 12:21:00,
2013-02-09 06:32:00,30.0,30.0,29.50,SSE,163,16.0,23.0,99,1.52,,,-99.99,,2013-02-09 12:32:00,
2013-02-09 06:42:00,30.0,30.0,29.50,SSE,163,16.0,23.0,99,1.52,,,-99.99,,2013-02-09 12:42:00,
2013-02-09 06:52:00,30.0,30.0,29.50,SSE,167,14.0,18.0,99,1.52,,,-99.99,,2013-02-09 12:52:00,
2013-02-09 07:02:00,30.0,30.0,29.50,SSE,153,16.0,22.0,99,1.52,,,-99.99,,2013-02-09 13:02:00,
2013-02-09 07:11:00,30.0,30.0,29.50,SSE,153,16.0,22.0,99,1.52,,,-99.99,,2013-02-09 13:11:00,
2013-02-09 07:21:00,30.0,30.0,29.49,SSE,155,16.0,22.0,99,1.52,,,-99.99,,2013-02-09 13:21:00,
2013-02-09 07:32:00,30.0,30.0,29.49,SSE,159,15.0,20.0,99,1.52,,,-99.99,,2013-02-09 13:32:00,
2013-02-09 07:42:00,30.0,30.0,29.49,SSE,159,15.0,20.0,99,1.52,,,-99.99,,2013-02-09 13:42:00,
2013-02-09 07:52:00,30.0,30.0,29.47,SSE,159,15.0,19.0,99,1.52,,,-99.99,,2013-02-09 13:52:00,
2013-02-09 08:01:00,30.0,30.0,29.49,SSE,163,15.0,20.0,99,1.52,,,-99.99,,2013-02-09 14:01:00,
2013-02-09 08:11:00,30.0,30.0,29.49,SSE,163,15.0,20.0,99,1.52,,,-99.99,,2013-02-09 14:11:00,
2013-02-09 08:21:00,30.0,30.0,29.48,SSE,155,16.0,21.0,99,1.52,,,-99.99,,2013-02-09 14:21:00,
2013-02-09 08:31:00,30.0,30.0,29.48,SSE,162,16.0,21.0,99,1.52,,,-99.99,,2013-02-09 14:31:00,
2013-02-09 08:41:00,30.0,30.0,29.48,SSE,162,16.0,21.0,99,1.52,,,-99.99,,2013-02-09 14:41:00,
2013-02-09 08:52:00,30.0,30.0,29.48,SSE,160,15.0,20.0,99,1.52,,,-99.99,,2013-02-09 14:52:00,
2013-02-09 09:01:00,30.0,30.0,29.48,South,169,16.0,22.0,99,1.52,,,-99.99,,2013-02-09 15:01:00,
2013-02-09 09:11:00,30.0,30.0,29.48,South,169,16.0,22.0,99,1.52,,,-99.99,,2013-02-09 15:11:00,
2013-02-09 09:21:00,31.0,31.0,29.48,SSE,156,14.0,18.0,99,1.52,,,-99.99,,2013-02-09 15:21:00,
2013-02-09 09:32:00,31.0,31.0,29.47,SSE,148,16.0,24.0,99,1.52,,,-99.99,,2013-02-09 15:32:00,
2013-02-09 09:42:00,31.0,31.0,29.47,SSE,148,16.0,24.0,99,1.52,,,-99.99,,2013-02-09 15:42:00,
2013-02-09 09:52:00,32.0,32.0,29.47,SSE,166,15.0,21.0,98,1.52,,,-99.99,,2013-02-09 15:52:00,
2013-02-09 10:01:00,33.0,32.0,29.45,SE,138,15.0,22.0,97,1.52,,,-99.99,,2013-02-09 16:01:00,
2013-02-09 10:11:00,33.0,32.0,29.45,SE,138,15.0,22.0,97,1.52,,,-99.99,,2013-02-09 16:11:00,
2013-02-09 10:22:00,34.0,33.0,29.47,SE,146,16.0,22.0,96,1.52,,,-99.99,,2013-02-09 16:22:00,
2013-02-09 10:31:00,35.0,34.0,29.46,SSE,152,15.0,22.0,95,1.52,,,-99.99,,2013-02-09 16:31:00,
2013-02-09 10:41:00,35.0,34.0,29.46,SSE,152,15.0,22.0,95,1.52,,,-99.99,,2013-02-09 16:41:00,
2013-02-09 10:52:00,36.0,34.0,29.45,SSE,148,14.0,20.0,94,1.52,,,-99.99,,2013-02-09 16:52:00,
2013-02-09 11:01:00,37.0,35.0,29.45,SSE,163,16.0,21.0,92,1.52,,,-99.99,,2013-02-09 17:01:00,
2013-02-09 11:11:00,37.0,35.0,29.45,SSE,163,16.0,21.0,92,1.52,,,-99.99,,2013-02-09 17:11:00,
2013-02-09 11:21:00,38.0,36.0,29.44,SSE,166,16.0,22.0,92,1.52,,,-99.99,,2013-02-09 17:21:00,
2013-02-09 11:32:00,39.0,37.0,29.44,SSW,197,17.0,23.0,91,1.52,,,-99.99,,2013-02-09 17:32:00,
2013-02-09 11:41:00,39.0,37.0,29.44,SSW,197,17.0,23.0,91,1.52,,,-99.99,,2013-02-09 17:41:00,
2013-02-09 11:52:00,40.0,37.0,29.43,SSE,155,16.0,22.0,90,1.52,,,-99.99,,2013-02-09 17:52:00,
2013-02-09 12:02:00,42.0,39.0,29.42,SSE,165,13.0,19.0,88,1.52,,,-99.99,,2013-02-09 18:02:00,
2013-02-09 12:12:00,42.0,39.0,29.42,SSE,165,13.0,19.0,88,1.52,,,-99.99,,2013-02-09 18:12:00,
2013-02-09 12:23:00,42.0,38.0,29.41,SSE,165,15.0,23.0,86,1.52,,,-99.99,,2013-02-09 18:23:00,
2013-02-09 12:32:00,44.0,40.0,29.37,NNW,338,14.0,21.0,86,1.52,,,-99.99,,2013-02-09 18:32:00,
2013-02-09 12:42:00,44.0,40.0,29.37,NNW,338,14.0,21.0,86,1.52,,,-99.99,,2013-02-09 18:42:00,
2013-02-09 12:52:00,46.0,41.0,29.38,SSE,160,13.0,17.0,83,1.52,,,-99.99,,2013-02-09 18:52:00,
2013-02-09 13:01:00,46.0,41.0,29.36,SSE,153,15.0,20.0,81,1.52,,,-99.99,,2013-02-09 19:01:00,
2013-02-09 13:11:00,46.0,41.0,29.36,SSE,153,15.0,20.0,81,1.52,,,-99.99,,2013-02-09 19:11:00,
2013-02-09 13:22:00,46.0,41.0,29.35,SSE,149,16.0,21.0,81,1.52,,,-99.99,,2013-02-09 19:22:00,
2013-02-09 13:31:00,46.0,41.0,29.34,SSE,165,16.0,22.0,81,1.52,,,-99.99,,2013-02-09 19:31:00,
2013-02-09 13:42:00,46.0,41.0,29.34,SSE,165,16.0,22.0,81,1.52,,,-99.99,,2013-02-09 19:42:00,
2013-02-09 13:52:00,47.0,41.0,29.32,South,180,16.0,21.0,81,1.52,,,-99.99,,2013-02-09 19:52:00,
2013-02-09 14:01:00,48.0,42.0,29.31,South,177,15.0,21.0,79,1.52,,,-99.99,,2013-02-09 20:01:00,
2013-02-09 14:11:00,48.0,42.0,29.31,South,177,15.0,21.0,79,1.52,,,-99.99,,2013-02-09 20:11:00,
2013-02-09 14:21:00,49.0,43.0,29.30,SE,125,15.0,20.0,79,1.52,,,-99.99,,2013-02-09 20:21:00,
2013-02-09 14:31:00,49.0,42.0,29.29,SSE,162,16.0,23.0,78,1.52,,,-99.99,,2013-02-09 20:31:00,
2013-02-09 14:42:00,49.0,42.0,29.29,SSE,162,16.0,23.0,78,1.52,,,-99.99,,2013-02-09 20:42:00,
2013-02-09 14:52:00,49.0,42.0,29.29,SSE,166,16.0,22.0,78,1.52,,,-99.99,,2013-02-09 20:52:00,
2013-02-09 15:02:00,49.0,42.0,29.28,SE,143,15.0,22.0,77,1.52,,,-99.99,,2013-02-09 21:02:00,
2013-02-09 15:11:00,49.0,42.0,29.28,SE,143,15.0,22.0,77,1.52,,,-99.99,,2013-02-09 21:11:00,
2013-02-09 15:21:00,50.0,43.0,29.28,South,179,15.0,20.0,77,1.52,,,-99.99,,2013-02-09 21:21:00,
2013-02-09 15:31:00,50.0,43.0,29.28,SSE,152,15.0,20.0,77,1.52,,,-99.99,,2013-02-09 21:31:00,
2013-02-09 15:41:00,50.0,43.0,29.28,SSE,152,15.0,20.0,77,1.52,,,-99.99,,2013-02-09 21:41:00,
2013-02-09 15:52:00,50.0,43.0,29.27,SSE,158,15.0,19.0,78,1.52,,,-99.99,,2013-02-09 21:52:00,
2013-02-09 16:01:00,50.0,43.0,29.25,SSE,166,13.0,18.0,78,1.52,,,-99.99,,2013-02-09 22:01:00,
2013-02-09 16:11:00,50.0,43.0,29.25,SSE,166,13.0,18.0,78,1.52,,,-99.99,,2013-02-09 22:11:00,
2013-02-09 16:21:00,50.0,43.0,29.24,SE,125,13.0,17.0,77,1.52,,,-99.99,,2013-02-09 22:21:00,
2013-02-09 16:32:00,48.0,42.0,29.24,SSE,155,10.0,16.0,81,1.52,,,-99.99,,2013-02-09 22:32:00,
2013-02-09 16:42:00,48.0,42.0,29.24,SSE,155,10.0,16.0,81,1.52,,,-99.99,,2013-02-09 22:42:00,
2013-02-09 16:52:00,48.0,42.0,29.24,ESE,110,14.0,19.0,80,1.52,,,-99.99,,2013-02-09 22:52:00,
2013-02-09 17:01:00,47.0,42.0,29.24,SSE,162,13.0,20.0,82,1.52,,,-99.99,,2013-02-09 23:01:00,
2013-02-09 17:11:00,47.0,42.0,29.24,SSE,162,13.0,20.0,82,1.52,,,-99.99,,2013-02-09 23:11:00,
2013-02-09 17:21:00,47.0,42.0,29.23,SSE,148,9.0,13.0,83,1.52,,,-99.99,,2013-02-09 23:21:00,
2013-02-09 17:31:00,46.0,41.0,29.23,SE,142,9.0,14.0,84,1.52,,,-99.99,,2013-02-09 23:31:00,
2013-02-09 17:42:00,46.0,41.0,29.23,SE,142,9.0,14.0,84,1.52,,,-99.99,,2013-02-09 23:42:00,
2013-02-09 17:52:00,45.0,41.0,29.22,SE,125,11.0,15.0,85,1.52,,,-99.99,,2013-02-09 23:52:00,
2013-02-09 18:02:00,45.0,41.0,29.21,SE,134,11.0,15.0,85,1.52,,,-99.99,,2013-02-10 00:02:00,
2013-02-09 18:11:00,45.0,41.0,29.21,SE,134,11.0,15.0,85,1.52,,,-99.99,,2013-02-10 00:11:00,
2013-02-09 18:21:00,44.0,40.0,29.21,SE,128,9.0,14.0,87,1.52,,,-99.99,,2013-02-10 00:21:00,
2013-02-09 18:32:00,43.0,40.0,29.21,SE,127,10.0,16.0,88,1.52,,,-99.99,,2013-02-10 00:32:00,
2013-02-09 18:42:00,43.0,40.0,29.21,SE,127,10.0,16.0,88,1.52,,,-99.99,,2013-02-10 00:42:00,
2013-02-09 18:52:00,42.0,39.0,29.20,East,79,12.0,17.0,89,1.52,,,-99.99,,2013-02-10 00:52:00,
2013-02-09 19:01:00,42.0,39.0,29.21,SSE,150,14.0,18.0,90,1.52,,,-99.99,,2013-02-10 01:01:00,
2013-02-09 19:12:00,42.0,39.0,29.21,SSE,150,14.0,18.0,90,1.52,,,-99.99,,2013-02-10 01:12:00,
2013-02-09 19:21:00,42.0,39.0,29.21,ESE,113,14.0,21.0,89,1.52,,,-99.99,,2013-02-10 01:21:00,
2013-02-09 19:31:00,42.0,39.0,29.21,SE,125,12.0,16.0,89,1.52,,,-99.99,,2013-02-10 01:31:00,
2013-02-09 19:42:00,42.0,39.0,29.21,SE,125,12.0,16.0,89,1.52,,,-99.99,,2013-02-10 01:42:00,
2013-02-09 19:52:00,41.0,38.0,29.21,SE,128,11.0,17.0,90,1.52,,,-99.99,,2013-02-10 01:52:00,
2013-02-09 20:01:00,41.0,38.0,29.21,South,173,12.0,20.0,90,1.52,,,-99.99,,2013-02-10 02:01:00,
2013-02-09 20:11:00,41.0,38.0,29.21,South,173,12.0,20.0,90,1.52,,,-99.99,,2013-02-10 02:11:00,
2013-02-09 20:22:00,41.0,38.0,29.20,SE,138,11.0,18.0,90,1.52,,,-99.99,,2013-02-10 02:22:00,
2013-02-09 20:31:00,41.0,38.0,29.19,SSE,149,12.0,20.0,90,1.52,,,-99.99,,2013-02-10 02:31:00,
2013-02-09 20:41:00,41.0,38.0,29.19,SSE,149,12.0,20.0,90,1.52,,,-99.99,,2013-02-10 02:41:00,
2013-02-09 20:52:00,40.0,37.0,29.19,SSE,158,13.0,19.0,90,1.52,,,-99.99,,2013-02-10 02:52:00,
2013-02-09 21:01:00,40.0,37.0,29.18,ESE,121,12.0,16.0,90,1.52,,,-99.99,,2013-02-10 03:01:00,
2013-02-09 21:11:00,40.0,37.0,29.18,ESE,121,12.0,16.0,90,1.52,,,-99.99,,2013-02-10 03:11:00,
2013-02-09 21:21:00,40.0,38.0,29.17,ESE,122,13.0,19.0,91,1.52,,,-99.99,,2013-02-10 03:21:00,
2013-02-09 21:32:00,40.0,38.0,29.16,ESE,118,12.0,18.0,91,1.52,,,-99.99,,2013-02-10 03:32:00,
2013-02-09 21:41:00,40.0,38.0,29.16,ESE,118,12.0,18.0,91,1.52,,,-99.99,,2013-02-10 03:41:00,
2013-02-09 21:52:00,40.0,38.0,29.15,SE,136,15.0,21.0,91,1.52,,,-99.99,,2013-02-10 03:52:00,
2013-02-09 22:01:00,39.0,37.0,29.15,ESE,113,13.0,20.0,91,1.52,,,-99.99,,2013-02-10 04:01:00,
2013-02-09 22:11:00,39.0,37.0,29.15,ESE,113,13.0,20.0,91,1.52,,,-99.99,,2013-02-10 04:11:00,
2013-02-09 22:21:00,39.0,37.0,29.14,ESE,118,14.0,22.0,92,1.52,,,-99.99,,2013-02-10 04:21:00,
2013-02-09 22:32:00,39.0,37.0,29.13,SSE,153,12.0,18.0,92,1.52,,,-99.99,,2013-02-10 04:32:00,
2013-02-09 22:41:00,39.0,37.0,29.13,SSE,153,12.0,18.0,92,1.52,,,-99.99,,2013-02-10 04:41:00,
2013-02-09 22:52:00,39.0,37.0,29.13,SSE,162,10.0,16.0,92,1.52,,,-99.99,,2013-02-10 04:52:00,
2013-02-09 23:01:00,39.0,37.0,29.13,SSE,149,10.0,15.0,92,1.52,,,-99.99,,2013-02-10 05:01:00,
2013-02-09 23:11:00,39.0,37.0,29.13,SSE,149,10.0,15.0,92,1.52,,,-99.99,,2013-02-10 05:11:00,
2013-02-09 23:22:00,39.0,37.0,29.15,SSE,163,13.0,17.0,92,1.52,,,-99.99,,2013-02-10 05:22:00,
2013-02-09 23:31:00,39.0,37.0,29.17,South,170,10.0,13.0,92,1.52,,,-99.99,,2013-02-10 05:31:00,
2013-02-09 23:41:00,39.0,37.0,29.17,South,170,10.0,13.0,92,1.52,,,-99.99,,2013-02-10 05:41:00,
2013-02-09 23:52:00,38.0,36.0,29.17,SSE,155,9.0,11.0,93,1.52,,,-99.99,,2013-02-10 05:52:00,